Regional Weather Roundup
Issued by NWS

Home | Current Version | Previous Version | Graphics & Text | Print | Product List | Glossary On
Versions: 1 2 3 4 5 6 7 8 9 10 11 12 13 14 15 16 17 18 19 20 21 22 23 24 25 26 27 28 29 30 31 32 33 34 35 36 37 38 39 40 41 42 43 44 45 46 47 48 49 50
000
ASUS43 KOAX 210610
RWRNE

WEATHER ROUNDUP FOR NEBRASKA
NATIONAL WEATHER SERVICE OMAHA NE
100 AM CDT TUE APR 21 2015

NOTES: SATELLITE DATA IS BEING USED TO AUGMENT CLOUD COVER ABOVE
       12000 FEET.
       "FAIR" INDICATES FEW OR NO CLOUDS BELOW 12,000 FEET WITH NO
       SIGNIFICANT WEATHER AND/OR OBSTRUCTIONS TO VISIBILITY.

  * THESE STATIONS DO NOT REPORT WEATHER SUCH AS RAIN...SNOW OR FOG.

NEZ001>004-019>022-054>056-210700-
NEBRASKA PANHANDLE

CITY           SKY/WX    TMP DP  RH WIND       PRES   REMARKS
SCOTTSBLUFF    CLEAR     34  27  75 W6        29.92R WCI  29
6HR MIN TEMP:  34; 6HR MAX TEMP:  57;

ALLIANCE       CLEAR     26  23  88 W6        29.91R WCI  19
6HR MIN TEMP:  26; 6HR MAX TEMP:  53;

CHADRON        CLEAR     30  23  75 CALM      29.93R
6HR MIN TEMP:  29; 6HR MAX TEMP:  55;

KIMBALL        CLEAR     33  29  85 W7        29.91F WCI  27
SIDNEY         CLEAR     31  26  82 W7        29.92S WCI  24
6HR MIN TEMP:  30; 6HR MAX TEMP:  53;

$$

NEZ057>060-069>072-079>082-210700-
SOUTHWEST NEBRASKA

CITY           SKY/WX    TMP DP  RH WIND       PRES   REMARKS
NORTH PLATTE   CLEAR     32  26  78 CALM      29.91R
6HR MIN TEMP:  31; 6HR MAX TEMP:  54;

IMPERIAL       CLEAR     37  28  70 W8        29.90S WCI  31
6HR MIN TEMP:  36; 6HR MAX TEMP:  56;

LEXINGTON      CLEAR     34  31  88 NW5       29.90R WCI  30
MCCOOK         CLEAR     38  30  73 W7        29.89R WCI  33
6HR MIN TEMP:  37; 6HR MAX TEMP:  59;

OGALLALA       CLEAR     37  29  72 CALM      29.91R
$$

NEZ005>010-023>029-035>040-094-210700-
NORTH CENTRAL NEBRASKA

CITY           SKY/WX    TMP DP  RH WIND       PRES   REMARKS
VALENTINE      CLOUDY    40  26  57 W7        29.87R
6HR MIN TEMP:  40; 6HR MAX TEMP:  51;

AINSWORTH      CLOUDY    44  26  50 W8        29.86R
BROKEN BOW     CLOUDY    38  29  70 CALM      29.87R
6HR MIN TEMP:  35; 6HR MAX TEMP:  55;

O`NEILL        CLOUDY    43  24  47 W9        29.83R
ORD            CLOUDY    44  27  51 W9        29.84S
6HR MIN TEMP:  42; 6HR MAX TEMP:  53;

THEDFORD       CLOUDY    37  29  71 W5        29.90R WCI  34
$$

NEZ041-046>049-061>064-073>077-083>087-210700-
SOUTH CENTRAL NEBRASKA

CITY           SKY/WX    TMP DP  RH WIND       PRES   REMARKS
GRAND ISLAND   CLOUDY    44  30  57 W8        29.87R
6HR MIN TEMP:  40; 6HR MAX TEMP:  56;

AURORA         CLOUDY    43  31  61 W7        29.86S
HASTINGS       CLOUDY    41  29  62 W6        29.87R
6HR MIN TEMP:  40; 6HR MAX TEMP:  55;

HEBRON         CLOUDY    39  29  68 CALM      29.88S
HOLDREGE       FAIR      36  30  80 CALM      29.89S
KEARNEY *      FAIR      41  27  56 W5        29.88S
YORK           CLOUDY    45  32  61 W8        29.86R
$$

NEZ011>018-030>034-042>045-210700-
NORTHEAST NEBRASKA

CITY           SKY/WX    TMP DP  RH WIND       PRES   REMARKS
NORFOLK        CLOUDY    41  23  48 W9        29.81R
6HR MIN TEMP:  40; 6HR MAX TEMP:  54;

ALBION         CLOUDY    42  23  47 CALM      29.83R
BLAIR          MOCLDY    42  20  40 W7        29.80S
COLUMBUS *     MOCLDY    36  21  55 CALM      29.83F
FREMONT        CLOUDY    38  30  72 W7        29.81S WCI  33
TEKAMAH        MOCLDY    40  23  50 W13       29.79R WCI  32
6HR MIN TEMP:  38; 6HR MAX TEMP:  55;

WAYNE          CLOUDY    41  15  34 W8        29.79S
$$

NEZ050>053-065>068-078-088>093-210700-
SOUTHEAST NEBRASKA

CITY           SKY/WX    TMP DP  RH WIND       PRES   REMARKS
LINCOLN        CLOUDY    42  30  62 CALM      29.85R
6HR MIN TEMP:  41; 6HR MAX TEMP:  57;

OMAHA EPPLEY   FAIR      45  21  38 W10       29.80R
6HR MIN TEMP:  45; 6HR MAX TEMP:  57;

BEATRICE       CLOUDY    42  32  67 W5        29.85S
NEBRASKA CITY  MOCLDY    41  24  51 W8        29.83S
PLATTSMOUTH    MOCLDY    42  24  48 W8        29.81S
$$

NEZ044-045-051>053-067-210700-
OMAHA AREA

CITY           SKY/WX    TMP DP  RH WIND       PRES   REMARKS
OMAHA EPPLEY   FAIR      45  21  38 W10       29.80R
6HR MIN TEMP:  45; 6HR MAX TEMP:  57;

BLAIR          MOCLDY    42  20  40 W7        29.80S
FREMONT        CLOUDY    38  30  72 W7        29.81S WCI  33
MILLARD        MOCLDY    45  24  45 W3        29.81S
OFFUTT AFB     FAIR      43  25  47 W7        29.80R
PLATTSMOUTH    MOCLDY    42  24  48 W8        29.81S
WAHOO          MOCLDY    42  26  53 W8        29.82S
$$



USA.gov is the U.S. government's official web portal to all federal, state and local government web resources and services.